PulseSat

PulseSat

MOLNIYA 3-24

Last updated on Feb. 17, 2019, 3:06 a.m. UTC

1 15738U 85040A   19046.36823759  .00000088  00000-0 -66259-2 0  9991
2 15738  64.0881 281.9663 6491651 257.0071  11.4344  2.55627675272724
UTC
Height (km)
Latitude
Longitude
Inclination
Orbital Period

Next 30 passes for location: Hong Kong

Rise time Rise Azimuth (degrees) Set time Set Azimuth (degrees) Duration Max altitude (degrees)

No matching passes for this satellites

PulseSat

PulseSat is the new satellites software and hardware trackering solution by Pulsely.
Satellite Two Line Element Set source: US Air Force Space Command

Download PulseSat for iOS
© 2017 Pulsely Limited